Date String (YYYY-MM-DD hh:mm:ss) UTC,Instrument flags,Ambient pressure (hPa),Sample flow (lpm),Bypass flow (lpm),Sample temperature (°C),Ambient temperature (°C),ASC tube jacket temperature (°C),LED temperature (°C),Box temperature (°C),Sample RH (%),Span deviation,Mass concentration (μg/m³),Mass concentration (μg/m³),Mass concentration (μg/m³)
DateTimeUTC,F1_M11,P_M11,Q1_M11,Q2_M11,T1_M11,T2_M11,T3_M11,T4_M11,T5_M11,U1_M11,ZSPAN_M11,X0_M11,X2_M11,X1_M11
2022-02-20 17:00:00,,0819.7,4.99,0.00,22.0,21.4,00.0,31.1,23.8,07.5,0000.0,0002.18,0000.68,0000.44
2022-02-20 17:01:00,,0819.7,5.00,0.00,22.1,21.4,00.0,31.1,23.8,07.4,0000.0,0002.15,0000.66,0000.44
2022-02-20 17:02:00,,0819.7,5.01,0.00,22.1,21.4,00.0,31.1,23.8,07.1,0000.0,0002.26,0000.67,0000.44
2022-02-20 17:03:00,,0819.8,4.99,0.00,22.1,21.4,00.0,31.1,23.8,06.9,0000.0,0002.22,0000.65,0000.45
2022-02-20 17:04:00,,0819.8,5.00,0.00,22.1,21.5,00.0,31.1,23.8,07.3,0000.0,0002.16,0000.64,0000.45
2022-02-20 17:05:00,,0819.8,5.00,0.00,22.1,21.4,00.0,31.1,23.8,07.1,0000.0,0002.18,0000.66,0000.46
2022-02-20 17:06:00,,0819.8,5.02,0.00,22.1,21.4,00.0,31.1,23.8,07.1,0000.0,0002.12,0000.64,0000.47
2022-02-20 17:07:00,,0819.8,4.99,0.00,22.1,21.4,00.0,31.1,23.8,07.0,0000.0,0002.08,0000.65,0000.47
2022-02-20 17:08:00,,0819.8,4.99,0.00,22.1,21.4,00.0,31.1,23.8,07.3,0000.0,0001.15,0000.66,0000.47
2022-02-20 17:09:00,,0819.8,5.00,0.00,22.1,21.4,00.0,31.1,23.8,07.2,0000.0,0001.02,0000.64,0000.47
2022-02-20 17:10:00,,0819.8,4.99,0.00,22.1,21.4,00.0,31.1,23.8,07.3,0000.0,0001.21,0000.63,0000.47
2022-02-20 17:11:00,,0819.8,5.02,0.00,22.1,21.5,00.0,31.1,23.8,07.4,0000.0,0001.58,0000.63,0000.48
2022-02-20 17:12:00,,0819.8,5.00,0.00,22.1,21.5,00.0,31.1,23.8,07.2,0000.0,0001.63,0000.65,0000.48
2022-02-20 17:13:00,,0819.8,4.99,0.00,22.1,21.5,00.0,31.1,23.8,06.6,0000.0,0001.58,0000.66,0000.49
2022-02-20 17:14:00,,0819.8,5.01,0.00,22.1,21.5,00.0,31.1,23.8,06.7,0000.0,0001.61,0000.68,0000.50
2022-02-20 17:15:00,,0819.8,4.99,0.00,22.1,21.5,00.0,31.1,23.8,06.8,0000.0,0001.64,0000.70,0000.50
2022-02-20 17:16:00,,0819.8,4.99,0.00,22.1,21.5,00.0,31.1,23.8,06.9,0000.0,0001.71,0000.69,0000.49
2022-02-20 17:17:00,,0819.8,5.00,0.00,22.1,21.5,00.0,31.1,23.8,06.7,0000.0,0001.73,0000.68,0000.49
2022-02-20 17:18:00,,0819.8,5.01,0.00,22.1,21.5,00.0,31.1,23.8,06.9,0000.0,0001.76,0000.70,0000.48
2022-02-20 17:19:00,,0819.8,5.01,0.00,22.1,21.4,00.0,31.1,23.8,07.1,0000.0,0001.71,0000.69,0000.47
2022-02-20 17:20:00,,0819.7,4.99,0.00,22.0,21.4,00.0,31.1,23.8,07.0,0000.0,0001.68,0000.67,0000.48
2022-02-20 17:21:00,,0819.8,4.99,0.00,22.0,21.4,00.0,31.1,23.8,07.2,0000.0,0001.44,0000.68,0000.47
2022-02-20 17:22:00,,0819.8,5.01,0.00,22.0,21.4,00.0,31.1,23.8,07.1,0000.0,0001.45,0000.70,0000.47
2022-02-20 17:23:00,,0819.7,5.02,0.00,22.0,21.4,00.0,31.1,23.8,07.1,0000.0,0002.37,0000.71,0000.48
2022-02-20 17:24:00,,0819.7,4.98,0.00,22.0,21.4,00.0,31.1,23.8,07.4,0000.0,0003.05,0000.72,0000.47
2022-02-20 17:25:00,,0819.6,5.00,0.00,22.0,21.4,00.0,31.1,23.8,07.4,0000.0,0003.07,0000.71,0000.46
2022-02-20 17:26:00,,0819.6,5.00,0.00,22.0,21.4,00.0,31.1,23.7,07.4,0000.0,0003.06,0000.70,0000.47
2022-02-20 17:27:00,,0819.5,5.02,0.00,22.0,21.4,00.0,31.1,23.8,07.4,0000.0,0003.13,0000.75,0000.47
2022-02-20 17:28:00,,0819.6,5.00,0.00,22.0,21.4,00.0,31.1,23.8,07.2,0000.0,0003.11,0000.76,0000.47
2022-02-20 17:29:00,,0819.5,5.00,0.00,22.0,21.4,00.0,31.1,23.8,07.2,0000.0,0003.14,0000.77,0000.48
2022-02-20 17:30:00,,0819.5,5.00,0.00,22.0,21.4,00.0,31.0,23.8,06.9,0000.0,0003.23,0000.80,0000.49
2022-02-20 17:31:00,,0819.5,5.02,0.00,22.0,21.4,00.0,31.0,23.8,07.0,0000.0,0003.32,0000.82,0000.48
2022-02-20 17:32:00,,0819.5,4.99,0.00,22.0,21.3,00.0,31.0,23.7,06.7,0000.0,0003.28,0000.81,0000.48
2022-02-20 17:33:00,,0819.5,5.00,0.00,21.9,21.2,00.0,31.0,23.7,06.5,0000.0,0003.10,0000.81,0000.47
2022-02-20 17:34:00,,0819.5,4.99,0.00,21.9,21.2,00.0,31.0,23.6,06.6,0000.0,0002.21,0000.81,0000.47
2022-02-20 17:35:00,,0819.5,5.00,0.00,21.9,21.2,00.0,31.0,23.6,06.9,0000.0,0001.49,0000.81,0000.47
2022-02-20 17:36:00,,0819.5,5.01,0.00,21.8,21.1,00.0,31.0,23.5,06.9,0000.0,0001.48,0000.82,0000.48
2022-02-20 17:37:00,,0819.5,4.99,0.00,21.8,21.1,00.0,31.0,23.5,06.7,0000.0,0002.59,0000.83,0000.48
2022-02-20 17:38:00,,0819.6,5.01,0.00,21.8,21.1,00.0,30.9,23.5,06.8,0000.0,0002.73,0000.78,0000.48
2022-02-20 17:39:00,,0819.5,5.01,0.00,21.7,21.1,00.0,30.9,23.4,06.5,0000.0,0002.76,0000.79,0000.48
2022-02-20 17:40:00,,0819.5,5.00,0.00,21.7,21.0,00.0,30.9,23.4,06.6,0000.0,0002.70,0000.77,0000.49
2022-02-20 17:41:00,,0819.5,4.99,0.00,21.7,21.0,00.0,30.9,23.4,07.1,0000.0,0002.59,0000.72,0000.47
2022-02-20 17:42:00,,0819.6,4.99,0.00,21.7,21.0,00.0,30.9,23.5,07.3,0000.0,0002.68,0000.73,0000.48
2022-02-20 17:43:00,,0819.5,5.01,0.00,21.7,21.1,00.0,30.9,23.5,07.0,0000.0,0002.78,0000.75,0000.48
2022-02-20 17:44:00,,0819.4,5.01,0.00,21.7,21.1,00.0,30.8,23.5,06.4,0000.0,0002.76,0000.74,0000.49
2022-02-20 17:45:00,,0819.4,4.99,0.00,21.7,21.1,00.0,30.8,23.5,06.5,0000.0,0002.68,0000.71,0000.49
2022-02-20 17:46:00,,0819.4,5.00,0.00,21.8,21.2,00.0,30.8,23.6,06.1,0000.0,0002.58,0000.67,0000.49
2022-02-20 17:47:00,,0819.5,5.00,0.00,21.8,21.2,00.0,30.8,23.5,05.8,0000.0,0002.57,0000.66,0000.49
2022-02-20 17:48:00,,0819.5,4.99,0.00,21.8,21.3,00.0,30.8,23.5,06.0,0000.0,0001.51,0000.67,0000.49
2022-02-20 17:49:00,,0819.4,5.00,0.00,21.8,21.3,00.0,30.9,23.6,06.1,0000.0,0001.22,0000.67,0000.50
2022-02-20 17:50:00,,0819.4,5.00,0.00,21.9,21.4,00.0,30.9,23.6,06.3,0000.0,0001.24,0000.69,0000.50
2022-02-20 17:51:00,,0819.4,5.00,0.00,21.9,21.4,00.0,30.9,23.7,06.7,0000.0,0001.47,0000.72,0000.50
2022-02-20 17:52:00,,0819.4,5.01,0.00,21.9,21.4,00.0,30.9,23.7,07.0,0000.0,0001.96,0000.76,0000.51
2022-02-20 17:53:00,,0819.4,4.99,0.00,21.9,21.4,00.0,30.9,23.7,07.4,0000.0,0001.88,0000.77,0000.52
2022-02-20 17:54:00,,0819.4,5.00,0.00,21.9,21.4,00.0,30.9,23.7,07.4,0000.0,0001.85,0000.76,0000.51
2022-02-20 17:55:00,,0819.4,4.99,0.00,21.9,21.4,00.0,30.9,23.7,07.0,0000.0,0002.09,0000.81,0000.51
2022-02-20 17:56:00,,0819.4,5.01,0.00,21.9,21.4,00.0,30.9,23.7,07.2,0000.0,0002.18,0000.83,0000.51
2022-02-20 17:57:00,,0819.4,5.00,0.00,21.9,21.5,00.0,30.9,23.7,07.3,0000.0,0002.30,0000.87,0000.51
2022-02-20 17:58:00,,0819.4,5.00,0.00,21.9,21.5,00.0,30.9,23.7,07.0,0000.0,0002.34,0000.90,0000.51
2022-02-20 17:59:00,,0819.4,5.00,0.00,22.0,21.5,00.0,30.9,23.7,06.4,0000.0,0002.34,0000.89,0000.51
